"Pseudo-MPEC" for C016HC2

Created 2019 Jan 12 22:18:05 UT using Find_Orb

Click here for an explanation of pseudo-MPECs

 
 Astrometry: 
     C016HC2  C2019 01 08.35451 08 09 41.79 +21 06 48.5    ~189I 20.8 GVNEOCPG96
     C016HC2  C2019 01 08.35958 08 09 41.18 +21 06 45.0    ~189I 21.5 GVNEOCPG96
     C016HC2  C2019 01 08.36466 08 09 40.54 +21 06 42.6    ~189I 20.7 GVNEOCPG96
     C016HC2  C2019 01 08.36977 08 09 40.06 +21 06 39.3    ~189I 21.5 GVNEOCPG96
     C016HC2  C2019 01 08U8jAy1hCFG4^VO:aEqisAstrometryKFk]42'DsaH(8IS#kQ#8?aV06
     C016HC2  C2019 01 08y3REXiYDqWX%2qJ@NoqR.6mV*#@x*sredacted;1\iLQhw.,/h`BV06
     C016HC2  C2019 01 09@h#gx-jr,tkqclick1/;]:)ZIii7OeP:'tn8qn%JgeyX\0BQG\Z[V06
     C016HC2  C2019 01 09'mKEghere@^]kQpB5AwL+?#RU^g;alk`6rS;rt50W'(/QJ'Al$mQV06
     C016HC2  C2019 01 09HJq90af#8llHJMP3%:FsmxforJq\WZa%*Ysn@_fwwYDy]q)pP)dPV06
     C016HC2  C2019 01 09r?OYyYlr'gWnd.Mba0ZjZdsx;W6explanation89Ra1K6EJI7BQ$V06
     C016HC2  C2019 01 11.35153 08 03 54.74 +20 33 38.5    ~1B9I 20.8 GVNEOCPI52
     C016HC2  C2019 01 11.35603 08 03 54.01 +20 33 34.8    ~1B9I 20.2 GVNEOCPI52
     C016HC2  C2019 01 11.36209 08 03 53.14 +20 33 29.7    ~1B9I 20.9 GVNEOCPI52
     C016HC2  C2019 01 11.36679 08 03 52.48 +20 33 26.2    ~1B9I 20.9 GVNEOCPI52
     C016HC2  C2019 01 12.49291 08 01 20.98 +20 19 05.7    ~1CCI 21.3 GVNEOCPI52
     C016HC2  C2019 01 12.49416 08 01 20.83 +20 19 05.2    ~1CCI 20.6 GVNEOCPI52
     C016HC2  C2019 01 12.49541 08 01 20.61 +20 19 03.6    ~1CCI 20.4 GVNEOCPI52
     C016HC2  C2019 01 12.49666 08 01 20.43 +20 19 03.0    ~1CCI 20.6 GVNEOCPI52

Station data:
(G96) Mt. Lemmon Survey  (N32.442754 W110.788720)  US/Arizona.  Observers B.
   M. Africano, E. J. Christensen, G. A. Farneth, D. C. Fuls, A. R. Gibbs, A.
   D. Grauer, H. Groeller, J. A. Johnson, R. A. Kowalski, S. M. Larson, G. J.
   Leonard, R. L. Seaman, F. C. Shelly. 1.5-m reflector + 10K CCD.
(I52) Steward Observatory, Mt. Lemmon Station  (N32.442547 W110.788920)
   US/Arizona.  Observers B. M. Africano, E. J. Christensen, G. A. Farneth,
   D. C. Fuls, A. R. Gibbs, A. D. Grauer, H. Groeller, J. A. Johnson, R. A.
   Kowalski, S. M. Larson, G. J. Leonard, R. L. Seaman, F. C. Shelly. 1.0-m
   reflector + CCD.
(V06) Catalina Sky Survey-Kuiper  (N32.416847 W110.732550)  US/Arizona.
   Observers B. M. Africano, E. J. Christensen, G. A. Farneth, D. C. Fuls, A.
   R. Gibbs, A. D. Grauer, H. Groeller, J. A. Johnson, R. A. Kowalski, S. M.
   Larson, G. J. Leonard, R. L. Seaman, F. C. Shelly. 1.55-m reflector + CCD.

Orbital elements:  C016HC2
   Perihelion 2019 Apr 1.678848 +/- 0.388 TT = 16:17:32 (JD 2458575.178848)
Epoch 2019 Jan 12.0 TT = JDT 2458495.5   Earth MOID: 0.0075   Ve: 0.0710
M 325.42161010 +/- 1.2              Ma: 0.0169                AutoNEOCP
n   0.43397201 +/- 0.0139           Peri.  283.61594 +/- 0.043
a   1.72780569 +/- 0.0369           Node   292.93438 +/- 0.022
e   0.5921758 +/- 0.0117            Incl.    7.20443 +/- 0.14
P   2.27/829.53d           H 22.6   G  0.15   U  9.9  
q 0.70464090 +/- 0.00503    Q 2.75097049 +/- 0.077
From 18 observations 2019 Jan. 8-12; mean residual 0".41
Residuals in arcseconds: 
190108 G96  .52+  .17+    190109 V06  .12-  .04-    190111 I52  .54-  .33-    
190108 G96  .01+  .26-    190109 V06  .01-  .03-    190111 I52  .66-  .35-    
190108 G96  .90-  .42+    190109 V06  .25+  .01-    190112 I52  .05-  .28-    
190108 G96  .48+  .24+    190109 V06  .32-  .01+    190112 I52  .38+  .26+    
190108 V06  .07+  .52-    190111 I52  1.4+  .67+    190112 I52  .18-  .29-    
190108 V06  .07-  .15-    190111 I52  .11-  .29+    190112 I52  .17-  .15+    

Ephemerides (geocentric):
Date (UTC) HH   RA              Dec         delta   r     elong  mag " sig PA
---- -- -- --  -------------   -----------  ------ ------ -----  --- ---- ---
2019 01 12 22  08 00 22.761   +20 13 35.65  .31169 1.2939 174.1 21.0 .637  53
2019 01 12 23  08 00 16.805   +20 13 01.68  .31127 1.2935 174.1 21.0 .665  53
2019 01 13 00  08 00 10.832   +20 12 27.61  .31085 1.2931 174.2 21.0 .693  53
2019 01 13 01  08 00 04.842   +20 11 53.44  .31043 1.2927 174.3 21.0 .723  54
2019 01 13 02  07 59 58.836   +20 11 19.17  .31001 1.2924 174.3 21.0 .753  54
2019 01 13 03  07 59 52.813   +20 10 44.80  .30960 1.2920 174.4 21.0 .783  54
2019 01 13 04  07 59 46.773   +20 10 10.33  .30918 1.2916 174.4 20.9 .815  54
2019 01 13 05  07 59 40.717   +20 09 35.76  .30876 1.2912 174.5 20.9 .847  54
2019 01 13 06  07 59 34.643   +20 09 01.08  .30834 1.2908 174.6 20.9 .879  54
2019 01 13 07  07 59 28.553   +20 08 26.30  .30792 1.2904 174.6 20.9 .913  54
2019 01 13 08  07 59 22.445   +20 07 51.43  .30750 1.2900 174.7 20.9 .947  54
2019 01 13 09  07 59 16.321   +20 07 16.44  .30709 1.2896 174.8 20.9 .982  54
2019 01 13 10  07 59 10.180   +20 06 41.36  .30667 1.2892 174.8 20.9 1.02  54
2019 01 13 11  07 59 04.021   +20 06 06.17  .30625 1.2888 174.9 20.9 1.05  54
2019 01 13 12  07 58 57.846   +20 05 30.87  .30584 1.2884 174.9 20.9 1.09  54
2019 01 13 13  07 58 51.653   +20 04 55.48  .30542 1.2881 175.0 20.9 1.13  54
2019 01 13 14  07 58 45.444   +20 04 19.97  .30501 1.2877 175.1 20.9 1.17  55
2019 01 13 15  07 58 39.217   +20 03 44.36  .30459 1.2873 175.1 20.9 1.21  55
2019 01 13 16  07 58 32.973   +20 03 08.65  .30418 1.2869 175.2 20.9 1.25  55
2019 01 13 17  07 58 26.711   +20 02 32.83  .30376 1.2865 175.3 20.9 1.29  55
2019 01 13 18  07 58 20.433   +20 01 56.90  .30335 1.2861 175.3 20.9 1.33  55
2019 01 13 19  07 58 14.137   +20 01 20.87  .30293 1.2857 175.4 20.9 1.37  55
2019 01 13 20  07 58 07.823   +20 00 44.72  .30252 1.2853 175.4 20.8 1.42  55
2019 01 13 21  07 58 01.492   +20 00 08.47  .30210 1.2849 175.5 20.8 1.46  55
2019 01 13 22  07 57 55.144   +19 59 32.12  .30169 1.2845 175.6 20.8 1.50  55
2019 01 13 23  07 57 48.778   +19 58 55.65  .30128 1.2841 175.6 20.8 1.55  55
2019 01 14 00  07 57 42.395   +19 58 19.07  .30086 1.2837 175.7 20.8 1.60  55
2019 01 14 01  07 57 35.994   +19 57 42.38  .30045 1.2834 175.8 20.8 1.65  55
2019 01 14 02  07 57 29.575   +19 57 05.59  .30004 1.2830 175.8 20.8 1.69  55
2019 01 14 03  07 57 23.139   +19 56 28.68  .29963 1.2826 175.9 20.8 1.74  55
2019 01 14 04  07 57 16.685   +19 55 51.66  .29922 1.2822 175.9 20.8 1.79  55
2019 01 14 05  07 57 10.213   +19 55 14.53  .29880 1.2818 176.0 20.8 1.84  56
2019 01 14 06  07 57 03.724   +19 54 37.29  .29839 1.2814 176.1 20.8 1.90  56
2019 01 14 07  07 56 57.217   +19 53 59.94  .29798 1.2810 176.1 20.8 1.95  56
2019 01 14 08  07 56 50.691   +19 53 22.47  .29757 1.2806 176.2 20.8 2.00  56
2019 01 14 09  07 56 44.148   +19 52 44.89  .29716 1.2802 176.2 20.8 2.06  56
2019 01 14 10  07 56 37.587   +19 52 07.20  .29675 1.2798 176.3 20.8 2.11  56
2019 01 14 11  07 56 31.008   +19 51 29.39  .29634 1.2794 176.4 20.7 2.17  56
2019 01 14 12  07 56 24.411   +19 50 51.47  .29593 1.2790 176.4 20.7 2.23  56
2019 01 14 13  07 56 17.796   +19 50 13.43  .29552 1.2787 176.5 20.7 2.29  56
2019 01 14 14  07 56 11.163   +19 49 35.27  .29511 1.2783 176.5 20.7 2.35  56
2019 01 14 15  07 56 04.512   +19 48 57.01  .29471 1.2779 176.6 20.7 2.41  56
2019 01 14 16  07 55 57.842   +19 48 18.62  .29430 1.2775 176.7 20.7 2.47  56
2019 01 14 17  07 55 51.155   +19 47 40.12  .29389 1.2771 176.7 20.7 2.53  56
2019 01 14 18  07 55 44.449   +19 47 01.50  .29348 1.2767 176.8 20.7 2.59  56
2019 01 14 19  07 55 37.724   +19 46 22.76  .29307 1.2763 176.8 20.7 2.66  56
2019 01 14 20  07 55 30.981   +19 45 43.90  .29267 1.2759 176.9 20.7 2.72  56
2019 01 14 21  07 55 24.220   +19 45 04.93  .29226 1.2755 177.0 20.7 2.79  57